{"data":{"norad_id":40021,"intl_designator":"2014-033M","name":"DUCHIFAT-1","alt_names":[],"object_type":"PAYLOAD","status":"ACTIVE","operator":null,"country":"ISRA","launch_date":"2014-06-19","launch_site_code":"DLS","launch_vehicle":null,"mission":null,"orbit_class":"UNKNOWN","rcs_meters":0.037,"size_class":null,"mass_kg":null,"dimensions":null,"purposes":["comms","tech_demo"],"wikipedia_slug":null,"has_3d_model":false,"image_url":null,"decayed_at":null,"tle_current":{"epoch":"2026-05-25T02:11:02.291136Z","epoch_age_seconds":67976,"freshness":"FRESH","line1":"1 40021U 14033M   26145.09099874  .00078339  00000+0  96786-3 0  9990","line2":"2 40021  98.0496 201.0937 0006101 157.7907 202.3613 15.59861488652141","mean_motion":15.59861488,"eccentricity":0.0006101,"inclination_deg":98.0496,"raan_deg":201.0937,"arg_perigee_deg":157.7907,"mean_anomaly_deg":202.3613,"bstar":0.00096786,"rev_number":65214,"period_min":92.315889011807,"perigee_km":383.92954382091,"apogee_km":392.18565447078,"semimajor_km":6766.1945991458,"source":"CELESTRAK","updated_at":"2026-05-25T13:38:25.520603Z"}}}